Year,Month,Day,Hour,Minute,Value (Times are PST for temperature in C)
2022,04,27,00,00,4.10
2022,04,27,00,01,4.10
2022,04,27,00,02,4.10
2022,04,27,00,03,4.00
2022,04,27,00,04,4.00
2022,04,27,00,05,4.00
2022,04,27,00,06,3.90
2022,04,27,00,07,3.90
2022,04,27,00,08,3.90
2022,04,27,00,09,3.90
2022,04,27,00,10,3.90
2022,04,27,00,11,3.80
2022,04,27,00,12,3.80
2022,04,27,00,13,3.80
2022,04,27,00,14,3.80
2022,04,27,00,15,3.80
2022,04,27,00,16,3.80
2022,04,27,00,17,3.80
2022,04,27,00,18,3.80
2022,04,27,00,19,3.70
2022,04,27,00,20,3.70
2022,04,27,00,21,3.70
2022,04,27,00,22,3.70
2022,04,27,00,23,3.70
2022,04,27,00,24,3.70
2022,04,27,00,25,3.70
2022,04,27,00,26,3.70
2022,04,27,00,27,3.70
2022,04,27,00,28,3.70
2022,04,27,00,29,3.70
2022,04,27,00,30,3.70
2022,04,27,00,31,3.70
2022,04,27,00,32,3.70
2022,04,27,00,33,3.70
2022,04,27,00,34,3.70
2022,04,27,00,35,3.70
2022,04,27,00,36,3.70
2022,04,27,00,37,3.70
2022,04,27,00,38,3.70
2022,04,27,00,39,3.70
2022,04,27,00,40,3.70
2022,04,27,00,41,3.70
2022,04,27,00,42,3.60
2022,04,27,00,43,3.60
2022,04,27,00,44,3.60
2022,04,27,00,45,3.60
2022,04,27,00,46,3.60
2022,04,27,00,47,3.60
2022,04,27,00,48,3.60
2022,04,27,00,49,3.60
2022,04,27,00,50,3.50
2022,04,27,00,51,3.50
2022,04,27,00,52,3.50
2022,04,27,00,53,3.50
2022,04,27,00,54,3.50
2022,04,27,00,55,3.50
2022,04,27,00,56,3.40
2022,04,27,00,57,3.40
2022,04,27,00,58,3.40
2022,04,27,00,59,3.40
2022,04,27,01,00,3.40
2022,04,27,01,01,3.40
2022,04,27,01,02,3.30
2022,04,27,01,03,3.30
2022,04,27,01,04,3.30
2022,04,27,01,05,3.30
2022,04,27,01,06,3.30
2022,04,27,01,07,3.30
2022,04,27,01,08,3.30
2022,04,27,01,09,3.30
2022,04,27,01,10,3.30
2022,04,27,01,11,3.30
2022,04,27,01,12,3.30
2022,04,27,01,13,3.30
2022,04,27,01,14,3.30
2022,04,27,01,15,3.30
2022,04,27,01,16,3.30
2022,04,27,01,17,3.30
2022,04,27,01,18,3.30
2022,04,27,01,19,3.30
2022,04,27,01,20,3.30
2022,04,27,01,21,3.30
2022,04,27,01,22,3.30
2022,04,27,01,23,3.30
2022,04,27,01,24,3.30
2022,04,27,01,25,3.30
2022,04,27,01,26,3.20
2022,04,27,01,27,3.20
2022,04,27,01,28,3.20
2022,04,27,01,29,3.20
2022,04,27,01,30,3.20
2022,04,27,01,31,3.20
2022,04,27,01,32,3.20
2022,04,27,01,33,3.20
2022,04,27,01,34,3.20
2022,04,27,01,35,3.20
2022,04,27,01,36,3.20
2022,04,27,01,37,3.20
2022,04,27,01,38,3.20
2022,04,27,01,39,3.20
2022,04,27,01,40,3.20
2022,04,27,01,41,3.20
2022,04,27,01,42,3.20
2022,04,27,01,43,3.20
2022,04,27,01,44,3.10
2022,04,27,01,45,3.10
2022,04,27,01,46,3.10
2022,04,27,01,47,3.10
2022,04,27,01,48,3.10
2022,04,27,01,49,3.10
2022,04,27,01,50,3.10
2022,04,27,01,51,3.10
2022,04,27,01,52,3.10
2022,04,27,01,53,3.10
2022,04,27,01,54,3.10
2022,04,27,01,55,3.10
2022,04,27,01,56,3.10
2022,04,27,01,57,3.10
2022,04,27,01,58,3.20
2022,04,27,01,59,3.20
2022,04,27,02,00,3.20
2022,04,27,02,01,3.20
2022,04,27,02,02,3.20
2022,04,27,02,03,3.20
2022,04,27,02,04,3.20
2022,04,27,02,05,3.20
2022,04,27,02,06,3.20
2022,04,27,02,07,3.20
2022,04,27,02,08,3.20
2022,04,27,02,09,3.20
2022,04,27,02,10,3.20
2022,04,27,02,11,3.20
2022,04,27,02,12,3.20
2022,04,27,02,13,3.20
2022,04,27,02,14,3.20
2022,04,27,02,15,3.20
2022,04,27,02,16,3.20
2022,04,27,02,17,3.20
2022,04,27,02,18,3.20
2022,04,27,02,19,3.30
2022,04,27,02,20,3.30
2022,04,27,02,21,3.30
2022,04,27,02,22,3.30
2022,04,27,02,23,3.30
2022,04,27,02,24,3.30
2022,04,27,02,25,3.30
2022,04,27,02,26,3.30
2022,04,27,02,27,3.30
2022,04,27,02,28,3.30
2022,04,27,02,29,3.30
2022,04,27,02,30,3.30
2022,04,27,02,31,3.30
2022,04,27,02,32,3.30
2022,04,27,02,33,3.30
2022,04,27,02,34,3.20
2022,04,27,02,35,3.20
2022,04,27,02,36,3.20
2022,04,27,02,37,3.10
2022,04,27,02,38,3.10
2022,04,27,02,39,3.00
2022,04,27,02,40,3.00
2022,04,27,02,41,3.00
2022,04,27,02,42,2.90
2022,04,27,02,43,2.90
2022,04,27,02,44,2.90
2022,04,27,02,45,2.90
2022,04,27,02,46,2.90
2022,04,27,02,47,2.90
2022,04,27,02,48,2.90
2022,04,27,02,49,2.90
2022,04,27,02,50,2.80
2022,04,27,02,51,2.80
2022,04,27,02,52,2.80
2022,04,27,02,53,2.80
2022,04,27,02,54,2.80
2022,04,27,02,55,2.80
2022,04,27,02,56,2.80
2022,04,27,02,57,2.80
2022,04,27,02,58,2.80
2022,04,27,02,59,2.70
2022,04,27,03,00,2.70
2022,04,27,03,01,2.70
2022,04,27,03,02,2.70
2022,04,27,03,03,2.70
2022,04,27,03,04,2.70
2022,04,27,03,05,2.70
2022,04,27,03,06,2.70
2022,04,27,03,07,2.70
2022,04,27,03,08,2.70
2022,04,27,03,09,2.70
2022,04,27,03,10,2.70
2022,04,27,03,11,2.70
2022,04,27,03,12,2.70
2022,04,27,03,13,2.70
2022,04,27,03,14,2.70
2022,04,27,03,15,2.70
2022,04,27,03,16,2.70
2022,04,27,03,17,2.70
2022,04,27,03,18,2.70
2022,04,27,03,19,2.70
2022,04,27,03,20,2.80
2022,04,27,03,21,2.80
2022,04,27,03,22,2.80
2022,04,27,03,23,2.80
2022,04,27,03,24,2.80
2022,04,27,03,25,2.80
2022,04,27,03,26,2.80
2022,04,27,03,27,2.80
2022,04,27,03,28,2.90
2022,04,27,03,29,2.90
2022,04,27,03,30,2.90
2022,04,27,03,31,2.90
2022,04,27,03,32,2.90
2022,04,27,03,33,2.90
2022,04,27,03,34,2.90
2022,04,27,03,35,2.90
2022,04,27,03,36,2.90
2022,04,27,03,37,2.90
2022,04,27,03,38,2.90
2022,04,27,03,39,2.90
2022,04,27,03,40,2.90
2022,04,27,03,41,3.00
2022,04,27,03,42,3.00
2022,04,27,03,43,3.00
2022,04,27,03,44,3.00
2022,04,27,03,45,2.90
2022,04,27,03,46,2.90
2022,04,27,03,47,2.90
2022,04,27,03,48,2.90
2022,04,27,03,49,2.90
2022,04,27,03,50,2.90
2022,04,27,03,51,2.90
2022,04,27,03,52,2.80
2022,04,27,03,53,2.80
2022,04,27,03,54,2.80
2022,04,27,03,55,2.80
2022,04,27,03,56,2.80
2022,04,27,03,57,2.80
2022,04,27,03,58,2.80
2022,04,27,03,59,2.80
2022,04,27,04,00,2.80
2022,04,27,04,01,2.70
2022,04,27,04,02,2.70
2022,04,27,04,03,2.70
2022,04,27,04,04,2.70
2022,04,27,04,05,2.70
2022,04,27,04,06,2.70
2022,04,27,04,07,2.70
2022,04,27,04,08,2.70
2022,04,27,04,09,2.70
2022,04,27,04,10,2.70
2022,04,27,04,11,2.70
2022,04,27,04,12,2.70
2022,04,27,04,13,2.70
2022,04,27,04,14,2.70
2022,04,27,04,15,2.70
2022,04,27,04,16,2.70
2022,04,27,04,17,2.70
2022,04,27,04,18,2.70
2022,04,27,04,19,2.70
2022,04,27,04,20,2.70
2022,04,27,04,21,2.70
2022,04,27,04,22,2.70
2022,04,27,04,23,2.70
2022,04,27,04,24,2.70
2022,04,27,04,25,2.70
2022,04,27,04,26,2.70
2022,04,27,04,27,2.70
2022,04,27,04,28,2.70
2022,04,27,04,29,2.70
2022,04,27,04,30,2.80
2022,04,27,04,31,2.80
2022,04,27,04,32,2.80
2022,04,27,04,33,2.80
2022,04,27,04,34,2.80
2022,04,27,04,35,2.80
2022,04,27,04,36,2.80
2022,04,27,04,37,2.80
2022,04,27,04,38,2.80
2022,04,27,04,39,2.80
2022,04,27,04,40,2.80
2022,04,27,04,41,2.80
2022,04,27,04,42,2.80
2022,04,27,04,43,2.80
2022,04,27,04,44,2.80
2022,04,27,04,45,2.80
2022,04,27,04,46,2.80
2022,04,27,04,47,2.80
2022,04,27,04,48,2.80
2022,04,27,04,49,2.80
2022,04,27,04,50,2.80
2022,04,27,04,51,2.80
2022,04,27,04,52,2.80
2022,04,27,04,53,2.80
2022,04,27,04,54,2.90
2022,04,27,04,55,2.90
2022,04,27,04,56,2.90
2022,04,27,04,57,2.90
2022,04,27,04,58,2.90
2022,04,27,04,59,2.90
2022,04,27,05,00,2.90
2022,04,27,05,01,2.90
2022,04,27,05,02,2.90
2022,04,27,05,03,2.90
2022,04,27,05,04,2.90
2022,04,27,05,05,2.90
2022,04,27,05,06,2.90
2022,04,27,05,07,2.90
2022,04,27,05,08,2.90
2022,04,27,05,09,2.90
2022,04,27,05,10,2.90
2022,04,27,05,11,2.90
2022,04,27,05,12,3.00
2022,04,27,05,13,3.00
2022,04,27,05,14,3.00
2022,04,27,05,15,3.00
2022,04,27,05,16,3.00
2022,04,27,05,17,3.00
2022,04,27,05,18,3.00
2022,04,27,05,19,3.00
2022,04,27,05,20,3.00
2022,04,27,05,21,3.00
2022,04,27,05,22,2.90
2022,04,27,05,23,3.00
2022,04,27,05,24,3.00
2022,04,27,05,25,3.00
2022,04,27,05,26,3.00
2022,04,27,05,27,3.00
2022,04,27,05,28,3.00
2022,04,27,05,29,3.00
2022,04,27,05,30,3.00
2022,04,27,05,31,3.10
2022,04,27,05,32,3.10
2022,04,27,05,33,3.10
2022,04,27,05,34,3.10
2022,04,27,05,35,3.10
2022,04,27,05,36,3.10
2022,04,27,05,37,3.10
2022,04,27,05,38,3.10
2022,04,27,05,39,3.10
2022,04,27,05,40,3.10
2022,04,27,05,41,3.10
2022,04,27,05,42,3.10
2022,04,27,05,43,3.10
2022,04,27,05,44,3.10
2022,04,27,05,45,3.10
2022,04,27,05,46,3.10
2022,04,27,05,47,3.10
2022,04,27,05,48,3.10
2022,04,27,05,49,3.10
2022,04,27,05,50,3.10
2022,04,27,05,51,3.10
2022,04,27,05,52,3.10
2022,04,27,05,53,3.10
2022,04,27,05,54,3.10
2022,04,27,05,55,3.10
2022,04,27,05,56,3.10
2022,04,27,05,57,3.10
2022,04,27,05,58,3.10
2022,04,27,05,59,3.10
2022,04,27,06,00,3.10
2022,04,27,06,01,3.10
2022,04,27,06,02,3.10
2022,04,27,06,03,3.10
2022,04,27,06,04,3.10
2022,04,27,06,05,3.10
2022,04,27,06,06,3.10
2022,04,27,06,07,3.00
2022,04,27,06,08,3.00
2022,04,27,06,09,3.00
2022,04,27,06,10,3.00
2022,04,27,06,11,3.00
2022,04,27,06,12,3.00
2022,04,27,06,13,3.00
2022,04,27,06,14,3.00
2022,04,27,06,15,3.00
2022,04,27,06,16,3.00
2022,04,27,06,17,3.00
2022,04,27,06,18,3.00
2022,04,27,06,19,3.00
2022,04,27,06,20,3.00
2022,04,27,06,21,3.00
2022,04,27,06,22,3.00
2022,04,27,06,23,3.00
2022,04,27,06,24,3.00
2022,04,27,06,25,3.00
2022,04,27,06,26,3.00
2022,04,27,06,27,3.00
2022,04,27,06,28,3.10
2022,04,27,06,29,3.10
2022,04,27,06,30,3.10
2022,04,27,06,31,3.10
2022,04,27,06,32,3.10
2022,04,27,06,33,3.00
2022,04,27,06,34,3.00
2022,04,27,06,35,3.10
2022,04,27,06,36,3.10
2022,04,27,06,37,3.10
2022,04,27,06,38,3.00
2022,04,27,06,39,3.00
2022,04,27,06,40,3.00
2022,04,27,06,41,3.00
2022,04,27,06,42,3.00
2022,04,27,06,43,3.10
2022,04,27,06,44,3.10
2022,04,27,06,45,3.10
2022,04,27,06,46,3.10
2022,04,27,06,47,3.10
2022,04,27,06,48,3.10
2022,04,27,06,49,3.10
2022,04,27,06,50,3.10
2022,04,27,06,51,3.10
2022,04,27,06,52,3.10
2022,04,27,06,53,3.10
2022,04,27,06,54,3.10
2022,04,27,06,55,3.10
2022,04,27,06,56,3.10
2022,04,27,06,57,3.10
2022,04,27,06,58,3.10
2022,04,27,06,59,3.10
2022,04,27,07,00,3.10
2022,04,27,07,01,3.10
2022,04,27,07,02,3.10
2022,04,27,07,03,3.10
2022,04,27,07,04,3.10
2022,04,27,07,05,3.10
2022,04,27,07,06,3.10
2022,04,27,07,07,3.10
2022,04,27,07,08,3.10
2022,04,27,07,09,3.10
2022,04,27,07,10,3.10
2022,04,27,07,11,3.10
2022,04,27,07,12,3.10
2022,04,27,07,13,3.10
2022,04,27,07,14,3.10
2022,04,27,07,15,3.10
2022,04,27,07,16,3.10
2022,04,27,07,17,3.10
2022,04,27,07,18,3.10
2022,04,27,07,19,3.10
2022,04,27,07,20,3.10
2022,04,27,07,21,3.10
2022,04,27,07,22,3.10
2022,04,27,07,23,3.10
2022,04,27,07,24,3.10
2022,04,27,07,25,3.10
2022,04,27,07,26,3.10
2022,04,27,07,27,3.10
2022,04,27,07,28,3.10
2022,04,27,07,29,3.10
2022,04,27,07,30,3.10
2022,04,27,07,31,3.20
2022,04,27,07,32,3.20
2022,04,27,07,33,3.20
2022,04,27,07,34,3.20
2022,04,27,07,35,3.20
2022,04,27,07,36,3.20
2022,04,27,07,37,3.20
2022,04,27,07,38,3.20
2022,04,27,07,39,3.20
2022,04,27,07,40,3.20
2022,04,27,07,41,3.20
2022,04,27,07,42,3.30
2022,04,27,07,43,3.30
2022,04,27,07,44,3.30
2022,04,27,07,45,3.30
2022,04,27,07,46,3.30
2022,04,27,07,47,3.30
2022,04,27,07,48,3.30
2022,04,27,07,49,3.30
2022,04,27,07,50,3.30
2022,04,27,07,51,3.30
2022,04,27,07,52,3.30
2022,04,27,07,53,3.30
2022,04,27,07,54,3.30
2022,04,27,07,55,3.30
2022,04,27,07,56,3.30
2022,04,27,07,57,3.30
2022,04,27,07,58,3.30
2022,04,27,07,59,3.30
2022,04,27,08,00,3.30
2022,04,27,08,01,3.30
2022,04,27,08,02,3.30
2022,04,27,08,03,3.30
2022,04,27,08,04,3.30
2022,04,27,08,05,3.30
2022,04,27,08,06,3.30
2022,04,27,08,07,3.30
2022,04,27,08,08,3.30
2022,04,27,08,09,3.30
2022,04,27,08,10,3.30
2022,04,27,08,11,3.30
2022,04,27,08,12,3.30
2022,04,27,08,13,3.30
2022,04,27,08,14,3.30
2022,04,27,08,15,3.30
2022,04,27,08,16,3.30
2022,04,27,08,17,3.30
2022,04,27,08,18,3.30
2022,04,27,08,19,3.30
2022,04,27,08,20,3.30
2022,04,27,08,21,3.30
2022,04,27,08,22,3.30
2022,04,27,08,23,3.40
2022,04,27,08,24,3.40
2022,04,27,08,25,3.40
2022,04,27,08,26,3.40
2022,04,27,08,27,3.40
2022,04,27,08,28,3.40
2022,04,27,08,29,3.40
2022,04,27,08,30,3.40
2022,04,27,08,31,3.40
2022,04,27,08,32,3.40
2022,04,27,08,33,3.40
2022,04,27,08,34,3.40
2022,04,27,08,35,3.40
2022,04,27,08,36,3.40
2022,04,27,08,37,3.40
2022,04,27,08,38,3.40
2022,04,27,08,39,3.40
2022,04,27,08,40,3.40
2022,04,27,08,41,3.40
2022,04,27,08,42,3.40
2022,04,27,08,43,3.40
2022,04,27,08,44,3.40
2022,04,27,08,45,3.40
2022,04,27,08,46,3.40
2022,04,27,08,47,3.40
2022,04,27,08,48,3.40
2022,04,27,08,49,3.40
2022,04,27,08,50,3.40
2022,04,27,08,51,3.40
2022,04,27,08,52,3.40
2022,04,27,08,53,3.40
2022,04,27,08,54,3.40
2022,04,27,08,55,3.40
2022,04,27,08,56,3.40
2022,04,27,08,57,3.40
2022,04,27,08,58,3.40
2022,04,27,08,59,3.40
2022,04,27,09,00,3.40
2022,04,27,09,01,3.40
2022,04,27,09,02,3.40
2022,04,27,09,03,3.40
2022,04,27,09,04,3.40
2022,04,27,09,05,3.40
2022,04,27,09,06,3.40
2022,04,27,09,07,3.40
2022,04,27,09,08,3.40
2022,04,27,09,09,3.40
2022,04,27,09,10,3.40
2022,04,27,09,11,3.40
2022,04,27,09,12,3.40
2022,04,27,09,13,3.40
2022,04,27,09,14,3.40
2022,04,27,09,15,3.40
2022,04,27,09,16,3.40
2022,04,27,09,17,3.40
2022,04,27,09,18,3.40
2022,04,27,09,19,3.40
2022,04,27,09,20,3.40
2022,04,27,09,21,3.40
2022,04,27,09,22,3.40
2022,04,27,09,23,3.40
2022,04,27,09,24,3.40
2022,04,27,09,25,3.40
2022,04,27,09,26,3.50
2022,04,27,09,27,3.50
2022,04,27,09,28,3.50
2022,04,27,09,29,3.60
2022,04,27,09,30,3.60
2022,04,27,09,31,3.60
2022,04,27,09,32,3.60
2022,04,27,09,33,3.60
2022,04,27,09,34,3.60
2022,04,27,09,35,3.60
2022,04,27,09,36,3.60
2022,04,27,09,37,3.60
2022,04,27,09,38,3.60
2022,04,27,09,39,3.60
2022,04,27,09,40,3.60
2022,04,27,09,56,3.70
2022,04,27,09,57,3.70
2022,04,27,09,58,3.70
2022,04,27,09,59,3.70
2022,04,27,10,00,3.70
2022,04,27,10,01,3.80
2022,04,27,10,02,3.80
2022,04,27,10,03,3.80
2022,04,27,10,04,3.80
2022,04,27,10,05,3.80
2022,04,27,10,06,3.80
2022,04,27,10,07,3.80
2022,04,27,10,08,3.80
2022,04,27,10,09,3.80
2022,04,27,10,10,3.90
2022,04,27,10,11,3.90
2022,04,27,10,12,3.90
2022,04,27,10,13,3.90
2022,04,27,10,14,4.00
2022,04,27,10,15,4.00
2022,04,27,10,16,4.10
2022,04,27,10,17,4.10
2022,04,27,10,18,4.10
2022,04,27,10,19,4.10
2022,04,27,10,20,4.10
2022,04,27,10,21,4.10
2022,04,27,10,22,4.10
2022,04,27,10,23,4.10
2022,04,27,10,24,4.10
2022,04,27,10,25,4.10
2022,04,27,10,26,4.20
2022,04,27,10,27,4.20
2022,04,27,10,28,4.20
2022,04,27,10,29,4.20
2022,04,27,10,30,4.20
2022,04,27,10,31,4.20
2022,04,27,10,32,4.20
2022,04,27,10,33,4.30
2022,04,27,10,34,4.30
2022,04,27,10,35,4.30
2022,04,27,10,36,4.30
2022,04,27,10,37,4.40
2022,04,27,10,38,4.40
2022,04,27,10,39,4.40
2022,04,27,10,40,4.40
2022,04,27,10,41,4.40
2022,04,27,10,42,4.40
2022,04,27,10,43,4.50
2022,04,27,10,44,4.50
2022,04,27,10,45,4.50
2022,04,27,10,46,4.50
2022,04,27,10,47,4.60
2022,04,27,10,48,4.60
2022,04,27,10,49,4.60
2022,04,27,10,50,4.60
2022,04,27,10,51,4.70
2022,04,27,10,52,4.70
2022,04,27,10,53,4.70
2022,04,27,10,54,4.70
2022,04,27,10,55,4.70
2022,04,27,10,56,4.80
2022,04,27,10,57,4.80
2022,04,27,10,58,4.80
2022,04,27,10,59,4.80
2022,04,27,11,00,4.80
2022,04,27,11,01,4.90
2022,04,27,11,02,4.90
2022,04,27,11,03,5.00
2022,04,27,11,04,5.00
2022,04,27,11,05,5.00
2022,04,27,11,06,5.10
2022,04,27,11,07,5.10
2022,04,27,11,08,5.10
2022,04,27,11,09,5.20
2022,04,27,11,10,5.20
2022,04,27,11,11,5.20
2022,04,27,11,12,5.30
2022,04,27,11,13,5.40
2022,04,27,11,14,5.50
2022,04,27,11,15,5.50
2022,04,27,11,16,5.50
2022,04,27,11,17,5.60
2022,04,27,11,18,5.70
2022,04,27,11,19,5.70
2022,04,27,11,20,5.80
2022,04,27,11,21,5.80
2022,04,27,11,22,5.80
2022,04,27,11,23,5.90
2022,04,27,11,24,5.90
2022,04,27,11,25,5.90
2022,04,27,11,26,5.90
2022,04,27,11,27,6.00
2022,04,27,11,28,6.00
2022,04,27,11,29,6.10
2022,04,27,11,30,6.20
2022,04,27,11,31,6.20
2022,04,27,11,32,6.20
2022,04,27,11,33,6.30
2022,04,27,11,34,6.30
2022,04,27,11,35,6.40
2022,04,27,11,36,6.50
2022,04,27,11,37,6.60
2022,04,27,11,38,6.70
2022,04,27,11,39,6.70
2022,04,27,11,40,6.80
2022,04,27,11,41,6.90
2022,04,27,11,42,7.00
2022,04,27,11,43,7.00
2022,04,27,11,44,7.10
2022,04,27,11,45,7.10
2022,04,27,11,46,7.10
2022,04,27,11,47,7.00
2022,04,27,11,48,7.10
2022,04,27,11,49,7.00
2022,04,27,11,50,7.00
2022,04,27,11,51,7.00
2022,04,27,11,52,7.00
2022,04,27,11,53,7.10
2022,04,27,11,54,7.20
2022,04,27,11,55,7.20
2022,04,27,11,56,7.30
2022,04,27,11,57,7.40
2022,04,27,11,58,7.40
2022,04,27,11,59,7.40
2022,04,27,12,00,7.50
2022,04,27,12,01,7.50
2022,04,27,12,02,7.60
2022,04,27,12,03,7.60
2022,04,27,12,04,7.60
2022,04,27,12,05,7.60
2022,04,27,12,06,7.60
2022,04,27,12,07,7.70
2022,04,27,12,08,7.80
2022,04,27,12,09,7.80
2022,04,27,12,10,7.80
2022,04,27,12,11,7.80
2022,04,27,12,12,7.90
2022,04,27,12,13,7.90
2022,04,27,12,14,7.90
2022,04,27,12,15,7.90
2022,04,27,12,16,7.90
2022,04,27,12,17,8.00
2022,04,27,12,18,8.10
2022,04,27,12,19,8.20
2022,04,27,12,20,8.20
2022,04,27,12,21,8.30
2022,04,27,12,22,8.30
2022,04,27,12,23,8.30
2022,04,27,12,24,8.40
2022,04,27,12,25,8.40
2022,04,27,12,26,8.50
2022,04,27,12,27,8.50
2022,04,27,12,28,8.60
2022,04,27,12,29,8.70
2022,04,27,12,30,8.80
2022,04,27,12,31,9.00
2022,04,27,12,32,9.20
2022,04,27,12,33,9.30
2022,04,27,12,34,9.30
2022,04,27,12,35,9.30
2022,04,27,12,36,9.30
2022,04,27,12,37,9.20
2022,04,27,12,38,9.30
2022,04,27,12,39,9.30
2022,04,27,12,40,9.40
2022,04,27,12,41,9.50
2022,04,27,12,42,9.70
2022,04,27,12,43,9.80
2022,04,27,12,44,9.90
2022,04,27,12,45,9.90
2022,04,27,12,46,9.90
2022,04,27,12,47,9.90
2022,04,27,12,48,9.80
2022,04,27,12,49,9.80
2022,04,27,12,50,9.80
2022,04,27,12,51,9.80
2022,04,27,12,52,9.80
2022,04,27,12,53,9.90
2022,04,27,12,54,9.90
2022,04,27,12,55,10.00
2022,04,27,12,56,10.10
2022,04,27,12,57,10.10
2022,04,27,12,58,10.00
2022,04,27,12,59,10.00
2022,04,27,13,00,10.10
2022,04,27,13,01,10.10
2022,04,27,13,02,10.10
2022,04,27,13,03,10.20
2022,04,27,13,04,10.20
2022,04,27,13,05,10.30
2022,04,27,13,06,10.30
2022,04,27,13,07,10.40
2022,04,27,13,08,10.30
2022,04,27,13,09,10.30
2022,04,27,13,10,10.20
2022,04,27,13,11,10.20
2022,04,27,13,12,10.10
2022,04,27,13,13,10.10
2022,04,27,13,14,10.10
2022,04,27,13,15,10.10
2022,04,27,13,16,10.10
2022,04,27,13,17,10.10
2022,04,27,13,18,10.20
2022,04,27,13,19,10.20
2022,04,27,13,20,10.20
2022,04,27,13,21,10.20
2022,04,27,13,22,10.30
2022,04,27,13,23,10.40
2022,04,27,13,24,10.50
2022,04,27,13,25,10.60
2022,04,27,13,26,10.60
2022,04,27,13,27,10.60
2022,04,27,13,28,10.50
2022,04,27,13,29,10.40
2022,04,27,13,30,10.30
2022,04,27,13,31,10.20
2022,04,27,13,32,10.20
2022,04,27,13,33,10.10
2022,04,27,13,34,10.10
2022,04,27,13,35,10.00
2022,04,27,13,36,10.00
2022,04,27,13,37,10.00
2022,04,27,13,38,9.90
2022,04,27,13,39,9.90
2022,04,27,13,40,9.90
2022,04,27,13,41,9.90
2022,04,27,13,42,9.90
2022,04,27,13,43,9.80
2022,04,27,13,44,9.80
2022,04,27,13,45,9.80
2022,04,27,13,46,9.80
2022,04,27,13,47,9.80
2022,04,27,13,48,9.70
2022,04,27,13,49,9.80
2022,04,27,13,50,9.80
2022,04,27,13,51,9.80
2022,04,27,13,52,9.90
2022,04,27,13,53,10.00
2022,04,27,13,54,10.10
2022,04,27,13,55,10.10
2022,04,27,13,56,10.10
2022,04,27,13,57,10.10
2022,04,27,13,58,10.10
2022,04,27,13,59,10.10
2022,04,27,14,00,10.10
2022,04,27,14,01,10.10
2022,04,27,14,02,10.20
2022,04,27,14,03,10.30
2022,04,27,14,04,10.30
2022,04,27,14,05,10.40
2022,04,27,14,06,10.40
2022,04,27,14,07,10.50
2022,04,27,14,08,10.60
2022,04,27,14,09,10.60
2022,04,27,14,10,10.70
2022,04,27,14,11,10.90
2022,04,27,14,12,11.00
2022,04,27,14,13,11.00
2022,04,27,14,14,11.00
2022,04,27,14,15,11.00
2022,04,27,14,16,11.00
2022,04,27,14,17,11.00
2022,04,27,14,18,10.90
2022,04,27,14,19,11.00
2022,04,27,14,20,11.10
2022,04,27,14,21,11.10
2022,04,27,14,22,11.10
2022,04,27,14,23,11.00
2022,04,27,14,24,11.00
2022,04,27,14,25,11.00
2022,04,27,14,26,10.90
2022,04,27,14,27,10.90
2022,04,27,14,28,10.90
2022,04,27,14,29,10.90
2022,04,27,14,30,10.80
2022,04,27,14,31,10.70
2022,04,27,14,32,10.70
2022,04,27,14,33,10.60
2022,04,27,14,34,10.50
2022,04,27,14,35,10.40
2022,04,27,14,36,10.30
2022,04,27,14,37,10.20
2022,04,27,14,38,10.20
2022,04,27,14,39,10.20
2022,04,27,14,40,10.30
2022,04,27,14,41,10.40
2022,04,27,14,42,10.50
2022,04,27,14,43,10.60
2022,04,27,14,44,10.70
2022,04,27,14,45,10.80
2022,04,27,14,46,10.80
2022,04,27,14,47,10.70
2022,04,27,14,48,10.80
2022,04,27,14,49,10.90
2022,04,27,14,50,11.00
2022,04,27,14,51,11.00
2022,04,27,14,52,11.10
2022,04,27,14,53,11.20
2022,04,27,14,54,11.10
2022,04,27,14,55,11.00
2022,04,27,14,56,10.80
2022,04,27,14,57,10.80
2022,04,27,14,58,10.80
2022,04,27,14,59,10.70
2022,04,27,15,00,10.60
2022,04,27,15,01,10.40
2022,04,27,15,02,10.20
2022,04,27,15,03,10.10
2022,04,27,15,04,10.00
2022,04,27,15,05,9.90
2022,04,27,15,06,9.90
2022,04,27,15,07,9.90
2022,04,27,15,08,9.90
2022,04,27,15,09,9.90
2022,04,27,15,10,9.90
2022,04,27,15,11,10.00
2022,04,27,15,12,10.00
2022,04,27,15,13,10.10
2022,04,27,15,14,10.20
2022,04,27,15,15,10.30
2022,04,27,15,16,10.30
2022,04,27,15,17,10.40
2022,04,27,15,18,10.50
2022,04,27,15,19,10.60
2022,04,27,15,20,10.70
2022,04,27,15,21,10.80
2022,04,27,15,22,10.90
2022,04,27,15,23,10.90
2022,04,27,15,24,10.90
2022,04,27,15,25,11.00
2022,04,27,15,26,11.10
2022,04,27,15,27,11.20
2022,04,27,15,28,11.30
2022,04,27,15,29,11.40
2022,04,27,15,30,11.50
2022,04,27,15,31,11.50
2022,04,27,15,32,11.40
2022,04,27,15,33,11.40
2022,04,27,15,34,11.50
2022,04,27,15,35,11.60
2022,04,27,15,36,11.60
2022,04,27,15,37,11.50
2022,04,27,15,38,11.40
2022,04,27,15,39,11.40
2022,04,27,15,40,11.40
2022,04,27,15,41,11.40
2022,04,27,15,42,11.50
2022,04,27,15,43,11.60
2022,04,27,15,44,11.70
2022,04,27,15,45,11.80
2022,04,27,15,46,11.90
2022,04,27,15,47,12.00
2022,04,27,15,48,12.10
2022,04,27,15,49,12.10
2022,04,27,15,50,12.10
2022,04,27,15,51,12.00
2022,04,27,15,52,11.90
2022,04,27,15,53,11.70
2022,04,27,15,54,11.60
2022,04,27,15,55,11.60
2022,04,27,15,56,11.50
2022,04,27,15,57,11.30
2022,04,27,15,58,11.20
2022,04,27,15,59,11.00
2022,04,27,16,00,10.90
2022,04,27,16,01,10.80
2022,04,27,16,02,10.70
2022,04,27,16,03,10.50
2022,04,27,16,04,10.50
2022,04,27,16,05,10.40
2022,04,27,16,06,10.50
2022,04,27,16,07,10.50
2022,04,27,16,08,10.40
2022,04,27,16,09,10.40
2022,04,27,16,10,10.40
2022,04,27,16,11,10.30
2022,04,27,16,12,10.30
2022,04,27,16,13,10.30
2022,04,27,16,14,10.20
2022,04,27,16,15,10.20
2022,04,27,16,16,10.20
2022,04,27,16,17,10.30
2022,04,27,16,18,10.30
2022,04,27,16,19,10.30
2022,04,27,16,20,10.40
2022,04,27,16,21,10.50
2022,04,27,16,22,10.50
2022,04,27,16,23,10.60
2022,04,27,16,24,10.60
2022,04,27,16,25,10.70
2022,04,27,16,26,10.70
2022,04,27,16,27,10.70
2022,04,27,16,28,10.70
2022,04,27,16,29,10.80
2022,04,27,16,30,10.90
2022,04,27,16,31,11.00
2022,04,27,16,32,11.00
2022,04,27,16,33,10.90
2022,04,27,16,34,10.90
2022,04,27,16,35,10.90
2022,04,27,16,36,10.90
2022,04,27,16,37,10.80
2022,04,27,16,38,10.80
2022,04,27,16,39,10.80
2022,04,27,16,40,10.80
2022,04,27,16,41,10.90
2022,04,27,16,42,10.90
2022,04,27,16,43,10.90
2022,04,27,16,44,10.90
2022,04,27,16,45,10.90
2022,04,27,16,46,11.00
2022,04,27,16,47,11.20
2022,04,27,16,48,11.20
2022,04,27,16,49,11.30
2022,04,27,16,50,11.30
2022,04,27,16,51,11.30
2022,04,27,16,52,11.30
2022,04,27,16,53,11.30
2022,04,27,16,54,11.30
2022,04,27,16,55,11.30
2022,04,27,16,56,11.40
2022,04,27,16,57,11.40
2022,04,27,16,58,11.50
2022,04,27,16,59,11.50
2022,04,27,17,00,11.50
2022,04,27,17,01,11.50
2022,04,27,17,02,11.60
2022,04,27,17,03,11.60
2022,04,27,17,04,11.70
2022,04,27,17,05,11.70
2022,04,27,17,06,11.60
2022,04,27,17,07,11.60
2022,04,27,17,08,11.60
2022,04,27,17,09,11.70
2022,04,27,17,10,11.70
2022,04,27,17,11,11.70
2022,04,27,17,12,11.70
2022,04,27,17,13,11.70
2022,04,27,17,14,11.60
2022,04,27,17,15,11.60
2022,04,27,17,16,11.60
2022,04,27,17,17,11.60
2022,04,27,17,18,11.50
2022,04,27,17,19,11.40
2022,04,27,17,20,11.30
2022,04,27,17,21,11.20
2022,04,27,17,22,11.20
2022,04,27,17,23,11.20
2022,04,27,17,24,11.20
2022,04,27,17,25,11.20
2022,04,27,17,26,11.20
2022,04,27,17,27,11.20
2022,04,27,17,28,11.30
2022,04,27,17,29,11.50
2022,04,27,17,30,11.60
2022,04,27,17,31,11.60
2022,04,27,17,32,11.50
2022,04,27,17,33,11.50
2022,04,27,17,34,11.40
2022,04,27,17,35,11.40
2022,04,27,17,36,11.40
2022,04,27,17,37,11.40
2022,04,27,17,38,11.30
2022,04,27,17,39,11.30
2022,04,27,17,40,11.30
2022,04,27,17,41,11.30
2022,04,27,17,42,11.30
2022,04,27,17,43,11.30
2022,04,27,17,44,11.30
2022,04,27,17,45,11.20
2022,04,27,17,46,11.10
2022,04,27,17,47,11.00
2022,04,27,17,48,11.00
2022,04,27,17,49,11.00
2022,04,27,17,50,10.90
2022,04,27,17,51,10.90
2022,04,27,17,52,10.90
2022,04,27,17,53,10.80
2022,04,27,17,54,10.80
2022,04,27,17,55,10.80
2022,04,27,17,56,10.70
2022,04,27,17,57,10.70
2022,04,27,17,58,10.70
2022,04,27,17,59,10.60
2022,04,27,18,00,10.60
2022,04,27,18,01,10.60
2022,04,27,18,02,10.60
2022,04,27,18,03,10.60
2022,04,27,18,04,10.60
2022,04,27,18,05,10.60
2022,04,27,18,06,10.70
2022,04,27,18,07,10.70
2022,04,27,18,08,10.70